UAL1182 VTBS-VTCC

Flight info

Callsign UAL1182
Flight time 1h 4m
Altitude 38000
Route OLVUK1G OLVUK Y26 MARNI MARNI2A
Aircraft A346/H-SDE3FGHIRWY/S

Departure

Time 2026-05-04 09:12
Airport Suvarnabhumi Airport (VTBS)

Arrival

Time 2026-05-04 10:16
Airport Chiang Mai International Airport (VTCC)
Time Latitude Longitude Altitude Speed Heading
2026-05-04 08:52 13.68809 100.75270 27 ft 0 kts 104°
2026-05-04 09:03 13.68814 100.75249 27 ft 3 kts 104°
2026-05-04 09:03 13.68821 100.75223 27 ft 3 kts 106°
2026-05-04 09:04 13.68831 100.75208 27 ft 2 kts 144°
2026-05-04 09:04 13.68848 100.75203 27 ft 2 kts 183°
2026-05-04 09:04 13.68852 100.75203 27 ft 0 kts 189°
2026-05-04 09:06 13.68847 100.75201 27 ft 2 kts 192°
2026-05-04 09:07 13.68505 100.75455 27 ft 12 kts 104°
2026-05-04 09:08 13.68480 100.75556 25 ft 16 kts 100°
2026-05-04 09:08 13.68515 100.75631 25 ft 10 kts 24°
2026-05-04 09:08 13.68597 100.75658 24 ft 14 kts 16°
2026-05-04 09:08 13.68711 100.75688 22 ft 18 kts 14°
2026-05-04 09:09 13.68836 100.75722 22 ft 19 kts 14°
2026-05-04 09:09 13.68955 100.75751 23 ft 6 kts 12°
2026-05-04 09:09 13.69015 100.75767 24 ft 10 kts 15°
2026-05-04 09:09 13.69084 100.75803 25 ft 12 kts 52°
2026-05-04 09:10 13.69100 100.75841 24 ft 3 kts 80°
2026-05-04 09:10 13.69085 100.75960 22 ft 20 kts 104°
2026-05-04 09:10 13.69064 100.76045 21 ft 9 kts 110°
2026-05-04 09:10 13.69021 100.76073 21 ft 8 kts 193°
2026-05-04 09:11 13.68967 100.76052 21 ft 16 kts 198°
2026-05-04 09:11 13.68595 100.75951 24 ft 95 kts 194°
2026-05-04 09:11 13.67699 100.75716 23 ft 162 kts 195°
2026-05-04 09:11 13.66537 100.75416 539 ft 176 kts 193°
2026-05-04 09:12 13.65351 100.75156 1338 ft 177 kts 186°
2026-05-04 09:12 13.64151 100.75117 2052 ft 181 kts 179°
2026-05-04 09:14 13.52741 100.77434 6808 ft 281 kts 161°
2026-05-04 09:14 13.50862 100.78005 7835 ft 284 kts 162°
2026-05-04 09:14 13.48924 100.78414 8762 ft 290 kts 174°
2026-05-04 09:14 13.46881 100.78322 9418 ft 295 kts 191°
2026-05-04 09:15 13.44960 100.77568 9814 ft 299 kts 210°
2026-05-04 09:15 13.43358 100.76206 9972 ft 302 kts 229°
2026-05-04 09:15 13.42264 100.74356 10003 ft 302 kts 248°
2026-05-04 09:15 13.41829 100.72225 10271 ft 317 kts 268°
2026-05-04 09:17 13.53157 100.57010 15656 ft 384 kts
2026-05-04 09:18 13.55832 100.57127 15952 ft 384 kts
2026-05-04 09:18 13.58521 100.57233 15961 ft 383 kts
2026-05-04 09:18 13.61195 100.57320 15969 ft 384 kts
2026-05-04 09:18 13.63871 100.57397 15979 ft 384 kts
2026-05-04 09:19 13.66572 100.57469 15996 ft 385 kts
2026-05-04 09:19 13.69249 100.57539 15989 ft 384 kts
2026-05-04 09:19 13.71922 100.57610 15983 ft 385 kts
2026-05-04 09:19 13.74610 100.57673 15993 ft 385 kts 360°
2026-05-04 09:20 13.77293 100.57362 15979 ft 385 kts 347°
2026-05-04 09:20 13.79845 100.56475 15966 ft 385 kts 335°
2026-05-04 09:20 13.82199 100.55129 16004 ft 386 kts 329°
2026-05-04 09:20 13.84477 100.53681 15996 ft 386 kts 328°
2026-05-04 09:21 13.86781 100.52202 15994 ft 386 kts 328°
2026-05-04 09:21 13.89037 100.50764 16001 ft 386 kts 328°
2026-05-04 09:21 13.91335 100.49315 16002 ft 386 kts 329°
2026-05-04 09:21 13.93712 100.48010 16011 ft 386 kts 334°
2026-05-04 09:22 13.96195 100.46921 15976 ft 386 kts 340°
2026-05-04 09:22 13.98741 100.46043 15964 ft 386 kts 342°
2026-05-04 09:22 14.01339 100.45216 15968 ft 386 kts 343°
2026-05-04 09:22 14.03920 100.44405 15974 ft 386 kts 343°
2026-05-04 09:23 14.06492 100.43595 15957 ft 385 kts 343°
2026-05-04 09:23 14.09076 100.42780 15933 ft 386 kts 343°
2026-05-04 09:23 14.11621 100.41974 15912 ft 385 kts 343°
2026-05-04 09:23 14.14223 100.41148 15946 ft 384 kts 343°
2026-05-04 09:25 14.32167 100.35448 15950 ft 385 kts 343°
2026-05-04 09:25 14.34709 100.34640 15941 ft 385 kts 342°
2026-05-04 09:26 14.37309 100.33813 16000 ft 389 kts 342°
2026-05-04 09:26 14.39900 100.32989 16521 ft 397 kts 342°
2026-05-04 09:26 14.42548 100.32148 17465 ft 395 kts 342°
2026-05-04 09:26 14.45176 100.31248 18274 ft 397 kts 339°
2026-05-04 09:27 14.47758 100.30190 18970 ft 402 kts 336°
2026-05-04 09:27 14.50290 100.28977 19625 ft 407 kts 333°
2026-05-04 09:27 14.52868 100.27679 20300 ft 412 kts 333°
2026-05-04 09:27 14.55454 100.26366 20946 ft 417 kts 333°
2026-05-04 09:28 14.58053 100.25050 21577 ft 421 kts 333°
2026-05-04 09:28 14.60730 100.23696 22198 ft 426 kts 333°
2026-05-04 09:28 14.63398 100.22366 22804 ft 431 kts 334°
2026-05-04 09:28 14.66191 100.21133 23432 ft 435 kts 337°
2026-05-04 09:29 14.69082 100.20050 24058 ft 440 kts 340°
2026-05-04 09:29 14.71997 100.19067 24670 ft 443 kts 341°
2026-05-04 09:29 14.74928 100.18095 25251 ft 447 kts 340°
2026-05-04 09:29 14.77937 100.17100 25837 ft 451 kts 340°
2026-05-04 09:30 14.80911 100.16116 26394 ft 454 kts 340°
2026-05-04 09:30 14.83941 100.15109 26944 ft 458 kts 340°
2026-05-04 09:30 14.87020 100.14085 27487 ft 462 kts 340°
2026-05-04 09:30 14.90104 100.13058 28003 ft 466 kts 340°
2026-05-04 09:31 14.93178 100.12032 28497 ft 469 kts 340°
2026-05-04 09:31 14.96321 100.10983 29025 ft 473 kts 340°
2026-05-04 09:31 14.99480 100.09929 29587 ft 475 kts 340°
2026-05-04 09:31 15.02622 100.08884 30242 ft 475 kts 339°
2026-05-04 09:32 15.05748 100.07847 31085 ft 471 kts 339°
2026-05-04 09:32 15.08859 100.06817 31961 ft 466 kts 339°
2026-05-04 09:34 15.30071 99.99739 37162 ft 454 kts 339°
2026-05-04 09:34 15.33093 99.98728 37557 ft 457 kts 339°
2026-05-04 09:34 15.36108 99.97720 37756 ft 460 kts 340°
2026-05-04 09:34 15.39175 99.96694 37755 ft 461 kts 340°
2026-05-04 09:35 15.45272 99.94658 37763 ft 461 kts 340°
2026-05-04 09:35 15.51406 99.92606 37767 ft 461 kts 340°
2026-05-04 09:37 15.75847 99.84415 37788 ft 460 kts 340°
2026-05-04 09:38 15.81963 99.82364 37790 ft 460 kts 340°
2026-05-04 09:38 15.88073 99.80311 37799 ft 461 kts 340°
2026-05-04 09:39 15.94198 99.78253 37796 ft 461 kts 340°
2026-05-04 09:39 16.00293 99.76202 37795 ft 461 kts 340°
2026-05-04 09:40 16.06414 99.74143 37797 ft 461 kts 340°
2026-05-04 09:40 16.12528 99.72083 37799 ft 460 kts 340°
2026-05-04 09:42 16.36962 99.63837 37802 ft 460 kts 340°
2026-05-04 09:43 16.43064 99.61782 37789 ft 460 kts 340°
2026-05-04 09:43 16.49170 99.59723 37784 ft 459 kts 340°
2026-05-04 09:44 16.55279 99.57657 37794 ft 459 kts 340°
2026-05-04 09:46 16.79670 99.49405 37800 ft 460 kts 340°
2026-05-04 09:46 16.85763 99.47343 37797 ft 459 kts 340°
2026-05-04 09:47 16.91837 99.45284 37788 ft 459 kts 340°
2026-05-04 09:49 17.16159 99.37017 37359 ft 452 kts 340°
2026-05-04 09:49 17.19160 99.35995 36810 ft 449 kts 340°
2026-05-04 09:51 17.36684 99.30017 33162 ft 440 kts 339°
2026-05-04 09:51 17.39608 99.29018 32367 ft 443 kts 339°
2026-05-04 09:51 17.42543 99.28016 31783 ft 443 kts 340°
2026-05-04 09:51 17.45515 99.27052 31416 ft 450 kts 342°
2026-05-04 09:52 17.48530 99.26242 30443 ft 452 kts 344°
2026-05-04 09:52 17.51612 99.25469 29502 ft 456 kts 344°
2026-05-04 09:52 17.54699 99.24703 28579 ft 461 kts 344°
2026-05-04 09:52 17.57831 99.23927 27677 ft 464 kts 344°
2026-05-04 09:53 17.60985 99.23142 26778 ft 467 kts 344°
2026-05-04 09:53 17.64156 99.22350 25878 ft 470 kts 344°
2026-05-04 09:53 17.67348 99.21550 24980 ft 470 kts 344°
2026-05-04 09:53 17.70519 99.20759 24079 ft 458 kts 344°
2026-05-04 09:54 17.73579 99.19994 23169 ft 446 kts 344°
2026-05-04 09:54 17.76532 99.19256 22259 ft 435 kts 344°
2026-05-04 09:54 17.79456 99.18522 21374 ft 424 kts 343°
2026-05-04 09:54 17.82280 99.17812 20501 ft 414 kts 343°
2026-05-04 09:55 17.85049 99.17115 19615 ft 406 kts 343°
2026-05-04 09:55 17.87745 99.16435 18723 ft 398 kts 343°
2026-05-04 09:55 17.90437 99.15757 17815 ft 392 kts 343°
2026-05-04 09:55 17.93040 99.15100 16921 ft 385 kts 343°
2026-05-04 09:56 17.95633 99.14444 16014 ft 379 kts 343°
2026-05-04 09:56 17.98175 99.13801 15114 ft 374 kts 344°
2026-05-04 09:56 18.00706 99.13160 14209 ft 370 kts 344°
2026-05-04 09:56 18.03190 99.12533 13349 ft 367 kts 345°
2026-05-04 09:57 18.05662 99.11908 12482 ft 367 kts 345°
2026-05-04 09:57 18.08175 99.11276 11606 ft 388 kts 345°
2026-05-04 09:57 18.10857 99.10597 10721 ft 395 kts 345°
2026-05-04 09:57 18.13524 99.10068 10099 ft 393 kts 355°
2026-05-04 09:58 18.16216 99.10525 9538 ft 391 kts 20°
2026-05-04 09:58 18.18682 99.11807 9404 ft 393 kts 26°
2026-05-04 09:58 18.21116 99.13107 9283 ft 394 kts 26°
2026-05-04 10:00 18.32727 99.26369 8342 ft 308 kts 32°
2026-05-04 10:00 18.34648 99.27268 8190 ft 297 kts 18°
2026-05-04 10:02 18.47326 99.28138 8068 ft 258 kts 346°
2026-05-04 10:04 18.47756 99.17967 7225 ft 244 kts 241°
2026-05-04 10:04 18.46954 99.16397 7108 ft 243 kts 241°
2026-05-04 10:04 18.46148 99.14809 6989 ft 243 kts 241°
2026-05-04 10:04 18.45353 99.13243 6866 ft 243 kts 241°
2026-05-04 10:05 18.44554 99.11668 6747 ft 243 kts 241°
2026-05-04 10:05 18.43758 99.10096 6628 ft 243 kts 242°
2026-05-04 10:05 18.43099 99.08445 6505 ft 244 kts 256°
2026-05-04 10:05 18.42909 99.06687 6389 ft 245 kts 268°
2026-05-04 10:06 18.42913 99.04868 6269 ft 245 kts 270°
2026-05-04 10:06 18.42939 99.03078 6147 ft 241 kts 270°
2026-05-04 10:06 18.42958 99.01360 6026 ft 233 kts 269°
2026-05-04 10:08 18.48724 98.96138 5276 ft 197 kts
2026-05-04 10:08 18.50040 98.96183 5125 ft 180 kts
2026-05-04 10:08 18.51252 98.96211 4988 ft 165 kts
2026-05-04 10:08 18.52398 98.96227 4883 ft 164 kts 360°
2026-05-04 10:09 18.53546 98.96236 4791 ft 163 kts 360°
2026-05-04 10:09 18.54673 98.96243 4688 ft 163 kts 359°
2026-05-04 10:09 18.55826 98.96247 4496 ft 163 kts 359°
2026-05-04 10:09 18.56959 98.96250 4296 ft 162 kts 360°
2026-05-04 10:10 18.58084 98.96253 4097 ft 162 kts 360°
2026-05-04 10:10 18.59228 98.96255 3893 ft 162 kts
2026-05-04 10:10 18.60353 98.96258 3692 ft 161 kts
2026-05-04 10:10 18.61488 98.96260 3490 ft 160 kts
2026-05-04 10:11 18.62602 98.96262 3292 ft 159 kts
2026-05-04 10:11 18.63713 98.96272 3092 ft 157 kts
2026-05-04 10:11 18.64794 98.96301 2870 ft 154 kts
2026-05-04 10:11 18.65865 98.96341 2638 ft 152 kts
2026-05-04 10:12 18.66951 98.96299 2357 ft 163 kts 358°
2026-05-04 10:12 18.68133 98.96266 2129 ft 173 kts 359°
2026-05-04 10:12 18.69339 98.96284 1996 ft 167 kts
2026-05-04 10:12 18.70484 98.96296 1823 ft 164 kts 358°
2026-05-04 10:13 18.71629 98.96270 1641 ft 159 kts
2026-05-04 10:13 18.72738 98.96307 1437 ft 164 kts 359°
2026-05-04 10:13 18.73950 98.96270 1337 ft 170 kts
2026-05-04 10:13 18.75099 98.96283 1081 ft 160 kts
2026-05-04 10:14 18.76161 98.96289 1030 ft 136 kts 360°
2026-05-04 10:14 18.76901 98.96291 1043 ft 79 kts
2026-05-04 10:16 18.77044 98.96645 1036 ft 0 kts 115°
2026-05-04 10:16 18.77043 98.96653 1036 ft 3 kts 99°
2026-05-04 10:16 18.77040 98.96669 1036 ft 1 kts 102°
2026-05-04 10:16 18.77035 98.96693 1036 ft 2 kts 96°
2026-05-04 10:17 18.77035 98.96701 1036 ft 1 kts 91°
2026-05-04 10:17 18.77035 98.96707 1036 ft 1 kts 91°
2026-05-04 10:19 18.77035 98.96712 1036 ft 0 kts 91°